User: anonymous   Login
Location: Bakov nad Jizerou
(50.4784°N, 14.9394°E)
Time: 01:15:53
(UTC+00:00)
Language:

Cosmos 1867 - Orbit

View from above orbital plane
View from above orbital plane
View from above satellite
View from above satellite

Ground track
Ground track

The orbit data is extracted from the following two-line orbital elements,

1 18187U 87060A   21268.09281935 -.00000056  00000-0  16611-4 0  9993
2 18187  65.0109 180.3283 0020923 271.8218  88.0470 14.31126208787139
Epoch (UTC): 25 September 2021 02:13:39
Eccentricity: 0.0020923
inclination: 65.0109°
perigee height: 773 km
apogee height: 803 km
right ascension of ascending node: 180.3283°
argument of perigee: 271.8218°
revolutions per day: 14.31126208
mean anomaly at epoch: 88.0470°
orbit number at epoch: 78713

The dashed part of the orbit path shows where the satellite is in the earth's shadow,  

DLR